HA8LNU Weather Reports


Display with metric or nautical units.
time (UTC)temp
F
wind
direction
speed
MPH
gust
MPH
rain 1hr
in
rain 24hr
in
rain mn
in
humidity
%
barometer
mb
20260503181043 55 0.0 0.0 0.00 0.00 0.00 44 1020.0
20260503180041 56 0.0 0.0 0.00 0.00 0.00 43 1020.0
20260503175059 57 0.0 0.0 0.00 0.00 0.00 42 1019.9
20260503174037 59 0.0 0.0 0.00 0.00 0.00 41 1019.8
20260503173034 60 0.0 0.0 0.00 0.00 0.00 39 1019.9
20260503172052 62 0.0 0.0 0.00 0.00 0.00 35 1019.8
20260503171030 64 0.0 0.0 0.00 0.00 0.00 31 1019.8
20260503131040 74 132 2.0 4.0 0.00 0.00 0.00 21 1021.7
20260503110112 71 72 3.0 5.0 0.00 0.00 0.00 23 1023.1
20260503090127 68 141 2.0 4.0 0.00 0.00 0.00 30 1024.2
20260503081037 66 234 3.0 5.0 0.00 0.00 0.00 31 1024.3
20260503072026 63 195 2.0 5.0 0.00 0.00 0.00 40 1024.2
20260503071024 63 115 2.0 6.0 0.00 0.00 0.00 42 1024.2
20260503060129 55 234 3.0 6.0 0.00 0.00 0.00 54 1023.8
20260503055127 53 207 1.0 4.0 0.00 0.00 0.00 61 1023.9
20260503054105 52 220 3.0 6.0 0.00 0.00 0.00 61 1024.0
20260503053123 51 204 3.0 6.0 0.00 0.00 0.00 62 1023.7
20260503052101 51 214 3.0 8.0 0.00 0.00 0.00 63 1023.7
20260503051058 50 194 4.0 11.0 0.00 0.00 0.00 64 1023.7
20260503050056 49 218 2.0 5.0 0.00 0.00 0.00 65 1023.7
20260503045054 48 221 2.0 5.0 0.00 0.00 0.00 66 1023.6
20260503044052 47 212 2.0 4.0 0.00 0.00 0.00 68 1023.5
20260503043050 46 195 2.0 4.0 0.00 0.00 0.00 69 1023.5
20260503042108 45 221 1.0 3.0 0.00 0.00 0.00 72 1023.3
20260503041046 45 203 1.0 2.0 0.00 0.00 0.00 74 1023.2
20260503040044 44 222 1.0 5.0 0.00 0.00 0.00 76 1023.2
20260503035041 43 219 1.0 2.0 0.00 0.00 0.00 77 1023.1
20260503034039 43 225 0.0 3.0 0.00 0.00 0.00 77 1023.0
20260503033058 43 208 1.0 5.0 0.00 0.00 0.00 77 1022.8
20260503032035 42 238 0.0 2.0 0.00 0.00 0.00 79 1022.8
20260503031033 40 200 1.0 4.0 0.00 0.00 0.00 79 1022.9
20260503030031 40 225 0.0 2.0 0.00 0.00 0.00 79 1022.7
20260503025029 41 0.0 2.0 0.00 0.00 0.00 80 1022.7
20260503024027 41 225 0.0 2.0 0.00 0.00 0.00 80 1022.6
20260503023025 40 225 1.0 2.0 0.00 0.00 0.00 80 1022.5
20260503022103 41 214 0.0 2.0 0.00 0.00 0.00 80 1022.6
20260503021020 41 0.0 1.0 0.00 0.00 0.00 80 1022.5
20260503020019 41 225 0.0 2.0 0.00 0.00 0.00 80 1022.4
20260503015017 41 180 0.0 2.0 0.00 0.00 0.00 81 1022.4
20260503014114 41 210 1.0 2.0 0.00 0.00 0.00 81 1022.4
20260503013112 41 0.0 1.0 0.00 0.00 0.00 82 1022.3
20260503012110 41 0.0 1.0 0.00 0.00 0.00 83 1022.1
20260503011108 40 225 0.0 2.0 0.00 0.00 0.00 83 1022.1
20260503010126 39 180 0.0 2.0 0.00 0.00 0.00 82 1021.9
20260503005124 39 0.0 0.0 0.00 0.00 0.00 82 1021.9
20260503004102 39 0.0 0.0 0.00 0.00 0.00 82 1021.9
20260503003120 40 0.0 0.0 0.00 0.00 0.00 82 1021.8
20260503002057 40 0.0 0.0 0.00 0.00 0.00 82 1021.8
20260503001056 40 0.0 0.0 0.00 0.00 0.00 81 1021.8
20260503000053 40 0.0 0.0 0.00 0.00 0.00 81 1021.8
20260502235111 40 0.0 0.0 0.00 0.00 0.00 81 1021.8
20260502234049 40 0.0 0.0 0.00 0.00 0.00 80 1021.9
20260502233047 41 0.0 0.0 0.00 0.00 0.00 80 1021.7
20260502232045 41 0.0 0.0 0.00 0.00 0.00 80 1021.8
20260502231043 42 0.0 0.0 0.00 0.00 0.00 80 1021.8
20260502230041 42 0.0 0.0 0.00 0.00 0.00 79 1021.8
20260502225039 42 0.0 0.0 0.00 0.00 0.00 78 1021.7
20260502224057 42 0.0 0.0 0.00 0.00 0.00 77 1021.7
20260502223034 42 0.0 0.0 0.00 0.00 0.00 75 1021.7
20260502222032 43 0.0 0.0 0.00 0.00 0.00 74 1021.7
20260502221030 43 0.0 0.0 0.00 0.00 0.00 73 1021.6
20260502220028 43 0.0 0.0 0.00 0.00 0.00 72 1021.6
20260502215026 44 0.0 0.0 0.00 0.00 0.00 72 1021.6
20260502214024 44 0.0 1.0 0.00 0.00 0.00 71 1021.6
20260502213022 44 0.0 0.0 0.00 0.00 0.00 70 1021.5
20260502212040 45 0.0 0.0 0.00 0.00 0.00 69 1021.5
20260502211017 45 0.0 0.0 0.00 0.00 0.00 65 1021.5
20260502210015 46 0.0 0.0 0.00 0.00 0.00 62 1021.4
20260502205113 47 0.0 0.0 0.00 0.00 0.00 62 1021.5
20260502204111 48 0.0 0.0 0.00 0.00 0.00 61 1021.5
20260502203109 47 180 0.0 3.0 0.00 0.00 0.00 62 1021.5
20260502202107 47 0.0 1.0 0.00 0.00 0.00 63 1021.5
20260502201125 47 0.0 0.0 0.00 0.00 0.00 62 1021.4
20260502195101 47 0.0 0.0 0.00 0.00 0.00 60 1021.4
20260502194119 48 0.0 0.0 0.00 0.00 0.00 59 1021.5
20260502193056 49 0.0 0.0 0.00 0.00 0.00 57 1021.6
20260502192055 49 0.0 0.0 0.00 0.00 0.00 56 1021.6
20260502191052 50 0.0 0.0 0.00 0.00 0.00 54 1021.5
20260502190110 51 0.0 0.0 0.00 0.00 0.00 52 1021.5
20260502185108 52 0.0 0.0 0.00 0.00 0.00 51 1021.5
20260502184046 53 0.0 0.0 0.00 0.00 0.00 49 1021.3
20260502183104 54 0.0 2.0 0.00 0.00 0.00 48 1021.3
20260502182042 55 0.0 0.0 0.00 0.00 0.00 42 1021.1